Location: Fort Wayne
(41.1310°N, 85.1290°W)
Time: 22:35:47
(UTC-04:00)

Daily predictions for brighter satellites

Satellite Brightness Start Highest point End
(mag) Time Altitude Azimuth Time Altitude Azimuth Time Altitude Azimuth
Timation 2 Rocket 4.1 21:25:03 10° NNW 21:31:23 78° ENE 21:37:57 10° SSE
Cosmos 858 Rocket 4.5 21:29:20 10° S 21:34:28 69° ESE 21:39:40 10° NNE
Meteor 1-26 Rocket 4.5 21:29:37 10° N 21:35:09 54° ENE 21:40:43 10° SSE
Meteor 2-3 Rocket 4.1 21:29:56 10° SSE 21:35:19 44° E 21:40:40 10° NNE
Envisat 3.0 21:30:28 10° SSE 21:35:33 84° ENE 21:40:39 10° NNW
Cosmos 1933 Rocket 3.5 21:32:04 10° S 21:36:22 74° E 21:40:43 10° NNE
Cosmos 1898 Rocket 3.6 21:31:54 10° SSW 21:37:11 86° ESE 21:42:32 10° NNE
SJ-11-01 4.4 21:34:21 10° SSE 21:39:02 66° ENE 21:43:43 10° N
Cosmos 1862 Rocket 3.6 21:35:34 10° N 21:40:05 79° E 21:44:33 10° S
YAOGAN 6 3.1 21:37:11 10° SSE 21:40:44 44° ENE 21:44:17 10° N
Cosmos 990 Rocket 4.0 21:38:21 10° S 21:43:26 60° ESE 21:48:35 10° NNE
Cosmos 1816 Rocket 4.5 21:39:12 10° S 21:45:19 71° E 21:51:26 10° NNE
Meteor 2-10 Rocket 4.1 21:42:29 10° NNW 21:48:18 75° W 21:54:05 10° S
ARGOS 4.3 21:43:59 10° ESE 21:48:23 27° ENE 21:52:48 10° N
Cosmos 2082 Rocket 3.3 21:43:55 10° NW 21:49:13 43° WSW 21:54:32 10° S
CENTAUR R/B 3.4 21:46:06 10° SSE 21:50:47 25° ESE 21:55:55 10° ENE
GPS 2-04 Rocket1 3.4 21:47:44 10° SW 21:51:01 30° S 21:53:59 11° ESE
Helios 1A 3.0 21:47:16 10° SSE 21:51:25 73° ENE 21:55:37 10° N
Cosmos 1315 Rocket 3.5 21:48:33 10° SSW 21:52:30 58° WNW 21:56:32 10° N
Cosmos 2346 Rocket 4.4 21:52:27 10° S 21:58:26 69° E 22:04:27 10° NNE
ISS -3.1 21:56:26 10° SSW 21:59:20 31° SE 22:02:17 10° ENE
COSMOS 2487 4.1 21:56:38 10° NW 21:59:50 32° WSW 22:03:01 10° SSW
COSMOS 2455 3.0 21:56:14 10° S 22:02:01 51° ESE 22:07:49 10° NE
Cosmos 1833 Rocket 4.2 21:57:30 10° NW 22:02:32 34° WSW 22:07:32 10° SSW
Cosmos 1825 3.5 22:03:09 14° SE 22:05:16 22° E 22:08:14 10° NE
H-2A R/B 3.4 22:03:42 12° ESE 22:07:36 26° ENE 22:11:59 10° N
Cosmos 1408 3.8 22:06:04 15° SE 22:08:15 25° E 22:11:20 10° NE
Terra 4.0 22:07:34 10° E 22:09:10 12° ENE 22:10:47 10° NE
Okean 1-7 3.5 22:08:24 10° N 22:12:39 43° ENE 22:15:49 16° SE
SPOT 5 3.8 22:10:02 14° SE 22:14:03 38° ENE 22:18:56 10° N
Cosmos 1703 Rocket 3.5 22:12:25 10° N 22:16:52 73° E 22:20:45 13° SSE
Cosmos 1892 3.3 22:13:20 10° SSW 22:17:08 59° W 22:20:57 10° N
Cosmos 1937 Rocket 4.2 22:12:41 10° SSW 22:17:44 57° WNW 22:22:49 10° NNE
Tiangong 2 1.1 22:14:44 10° WNW 22:17:57 71° SSW 22:19:51 22° ESE
Meteor 1-29 3.2 22:16:27 10° N 22:19:58 75° WNW 22:23:26 10° SSW
MetOp-A 4.1 22:22:43 15° SSE 22:27:12 72° ENE 22:32:32 10° N
Cosmos 2263 4.4 22:22:10 10° S 22:27:44 52° ESE 22:33:17 10° NNE
Cosmos 1943 Rocket 2.5 22:25:24 10° S 22:30:38 42° ESE 22:35:52 10° NE
Cosmos 1733 Rocket 4.4 22:29:55 20° ESE 22:30:59 22° E 22:34:17 10° NE
NOAA 11 4.2 22:28:13 13° SSE 22:33:09 86° WSW 22:38:41 10° NNW
Lacrosse 5 rocket 0.9 22:29:40 10° SSW 22:33:10 56° SE 22:36:45 10° NE
Cosmos 158 Rocket 4.3 22:30:47 10° N 22:35:30 46° ENE 22:38:05 24° SE
Cosmos 1869 Rocket 3.5 22:31:24 10° S 22:35:44 88° WNW 22:40:06 10° N
Cosmos 1346 Rocket 4.1 22:34:42 10° NNW 22:38:23 37° W 22:42:05 10° SSW
CZ-4B DEB 4.4 22:37:44 10° SSW 22:40:14 27° W 22:42:48 10° NW
Cosmos 1340 3.2 22:38:21 10° N 22:41:59 42° ENE 22:43:13 31° ESE
Cosmos 2221 Rocket 3.6 22:38:02 10° N 22:42:28 84° W 22:45:32 20° S
Cosmos 2369 Rocket 2.3 22:38:52 10° SSW 22:44:31 82° WNW 22:50:15 10° NNE
ERS-1 Rocket 3.4 22:43:22 14° S 22:47:36 61° WSW 22:52:36 10° NNW
Cosmos 1606 2.5 22:45:30 10° N 22:49:17 85° E 22:50:58 32° S
Cosmos 1048 Rocket 4.1 22:44:10 10° NNW 22:49:27 62° ENE 22:52:08 28° SE
Meteor 1-10 Rocket 4.3 22:45:08 10° N 22:51:07 89° E 22:55:13 21° S
Meteor 1-27 Rocket 4.0 22:46:38 10° N 22:52:19 55° ENE 22:55:10 28° SE
Shenzhou-11 Module 3.1 22:53:47 10° W 22:56:30 31° SSW 22:56:30 31° SSW
Cosmos 2084 3.4 22:55:19 10° NW 22:59:07 65° WSW 23:00:25 38° S
CARTOSAT-1 4.4 23:02:16 30° E 23:03:19 35° ENE 23:07:15 10° N
BREEZE M DEB (TANK) 4.0 22:51:08 10° WSW 23:03:51 87° NNW 23:07:33 10° ENE
GEOS 3 Rocket 4.0 23:02:34 28° ESE 23:05:04 55° NE 23:10:11 10° NNW
SPOT 1/Viking Rocket 3.5 23:02:51 31° SSE 23:05:26 82° ENE 23:10:40 10° NNW
Cosmos 1674 Rocket 4.1 23:03:26 10° N 23:07:29 38° ENE 23:08:13 35° ESE
Meteor 2-6 Rocket 4.5 23:01:39 10° NNW 23:07:35 73° W 23:11:26 23° S
Nadezhda 4 Rocket 4.0 23:04:23 27° SSE 23:07:43 59° E 23:13:46 10° NNE
USA 215 3.5 23:04:05 27° SSE 23:07:47 62° SW 23:14:17 10° NW
YAOGAN 11 4.3 23:06:27 30° S 23:08:41 70° WSW 23:13:13 10° NNW
Cosmos 1782 3.8 23:09:10 10° NNW 23:12:58 42° W 23:14:57 24° SSW
Lacrosse 4 Rocket 1.7 23:10:08 10° NNW 23:14:36 60° ENE 23:15:43 44° ESE
ATLAS 5 CENTAUR R/B 2.5 23:08:55 10° NNW 23:14:55 73° NE 23:17:52 34° SE
Cosmos 1269 Rocket 4.0 23:15:16 10° NNW 23:20:34 77° WSW 23:22:37 38° S
H-2A R/B 2.9 23:20:16 31° E 23:20:38 32° ENE 23:24:17 10° N
Milstar 3 3.7 23:16:14 10° SW 23:24:29 30° S 23:25:14 30° SSE
Cosmos 372 Rocket 4.4 23:23:02 10° SSW 23:28:06 60° WNW 23:33:10 10° NNE
ARGOS 4.1 23:25:05 20° SSW 23:28:25 40° W 23:33:27 10° NNW
Cosmos 1125 Rocket 4.4 23:24:20 10° SW 23:29:24 49° WNW 23:34:30 10° N
GPS 2-04 Rocket1 4.4 23:27:07 10° WSW 23:28:26 19° WSW 23:28:26 19° WSW
Cosmos 1862 3.8 23:29:17 35° SW 23:30:42 55° W 23:34:37 10° N
Landsat 7 3.8 23:29:43 47° S 23:31:05 82° WSW 23:35:52 10° NNW
TRAILBLAZER 4.5 23:31:37 60° SSE 23:32:10 67° ESE 23:36:42 10° NE
Cosmos 1656 Rocket 3.6 23:31:50 44° SSE 23:33:22 63° ESE 23:38:49 10° NNE
ISS -2.0 23:32:49 10° W 23:35:48 32° NNW 23:38:47 10° NE
Cosmos 1825 4.4 23:37:59 11° SW 23:40:45 22° WNW 23:43:47 10° NNW
CENTAUR R/B 3.1 23:34:50 10° SW 23:40:47 59° NW 23:47:38 10° NNE
Cosmos 1908 Rocket 3.7 23:41:27 56° E 23:41:27 56° E 23:45:47 10° NNE
Cosmos 1867 4.1 23:37:05 10° NNW 23:42:23 49° NE 23:43:51 39° E
Cosmos 1437 3.9 23:42:16 10° N 23:44:29 39° N 23:44:29 39° N
Terra 1.7 23:45:22 60° S 23:46:13 82° WSW 23:51:00 10° NNW
H-2A R/B 3.0 23:44:21 27° SSW 23:46:46 42° W 23:51:51 10° NNW
Okean 3 3.5 23:43:15 10° N 23:47:16 65° ENE 23:47:16 65° ENE
IGS 5A 3.4 23:51:10 70° WSW 23:51:20 72° WSW 23:55:29 10° NNW
Cosmos 2227 Rocket 4.0 23:48:04 10° N 23:52:08 20° NE 23:54:19 16° E
